| time (UTC) | temp C | wind direction | speed KPH | gust KPH | rain 1hr cm | rain 24hr cm | rain mn cm | humidity % | barometer mb |
| 20260505181834 | 28 | 290 | 6.4 | 14.5 | 0.00 | 0.00 | 0.00 | 35 | 1008.6 |
| 20260505181331 | 28 | 273 | 8.0 | 14.5 | 0.00 | 0.00 | 0.00 | 36 | 1008.7 |
| 20260505180827 | 28 | 199 | 4.8 | 8.0 | 0.00 | 0.00 | 0.00 | 36 | 1008.8 |
| 20260505180324 | 28 | 213 | 9.7 | 12.9 | 0.00 | 0.00 | 0.00 | 36 | 1008.8 |
| 20260505175820 | 28 | 222 | 3.2 | 3.2 | 0.00 | 0.00 | 0.00 | 37 | 1008.8 |
| 20260505175317 | 28 | 287 | 6.4 | 8.0 | 0.00 | 0.00 | 0.00 | 36 | 1009.1 |
| 20260505174814 | 28 | 208 | 0.0 | 1.6 | 0.00 | 0.00 | 0.00 | 37 | 1008.9 |
| 20260505174311 | 28 | 199 | 3.2 | 3.2 | 0.00 | 0.00 | 0.00 | 40 | 1008.8 |
| 20260505173807 | 28 | 205 | 6.4 | 8.0 | 0.00 | 0.00 | 0.00 | 39 | 1008.9 |
| 20260505173303 | 27 | 172 | 6.4 | 8.0 | 0.00 | 0.00 | 0.00 | 38 | 1009.1 |
| 20260505172800 | 27 | 259 | 4.8 | 8.0 | 0.00 | 0.00 | 0.00 | 39 | 1009.0 |
| 20260505172258 | 27 | 169 | 4.8 | 8.0 | 0.00 | 0.00 | 0.00 | 41 | 1009.1 |
| 20260505171752 | 27 | 178 | 6.4 | 9.7 | 0.00 | 0.00 | 0.00 | 39 | 1009.2 |
| 20260505171249 | 27 | 224 | 4.8 | 9.7 | 0.00 | 0.00 | 0.00 | 40 | 1009.2 |
| 20260505170746 | 27 | 215 | 1.6 | 1.6 | 0.00 | 0.00 | 0.00 | 44 | 1009.3 |
| 20260505170243 | 27 | 221 | 3.2 | 3.2 | 0.00 | 0.00 | 0.00 | 41 | 1009.2 |
| 20260505165738 | 27 | 185 | 6.4 | 8.0 | 0.00 | 0.00 | 0.00 | 40 | 1009.3 |
| 20260505165235 | 27 | 154 | 1.6 | 3.2 | 0.00 | 0.00 | 0.00 | 44 | 1009.5 |
| 20260505164730 | 27 | 173 | 1.6 | 3.2 | 0.00 | 0.00 | 0.00 | 40 | 1009.1 |
| 20260505164228 | 27 | 233 | 1.6 | 1.6 | 0.00 | 0.00 | 0.00 | 43 | 1009.3 |
| 20260505163725 | 27 | 149 | 4.8 | 4.8 | 0.00 | 0.00 | 0.00 | 43 | 1009.5 |
| 20260505163224 | 26 | 229 | 4.8 | 9.7 | 0.00 | 0.00 | 0.00 | 45 | 1009.6 |
| 20260505162721 | 27 | 158 | 6.4 | 9.7 | 0.00 | 0.00 | 0.00 | 41 | 1009.6 |
| 20260505162218 | 27 | 235 | 1.6 | 3.2 | 0.00 | 0.00 | 0.00 | 44 | 1009.6 |
| 20260505161715 | 27 | 219 | 3.2 | 4.8 | 0.00 | 0.00 | 0.00 | 44 | 1009.7 |
| 20260505161213 | 26 | 229 | 6.4 | 11.3 | 0.00 | 0.00 | 0.00 | 43 | 1009.9 |
| 20260505160710 | 26 | 248 | 4.8 | 4.8 | 0.00 | 0.00 | 0.00 | 43 | 1009.8 |
| 20260505160207 | 26 | 216 | 3.2 | 4.8 | 0.00 | 0.00 | 0.00 | 41 | 1010.0 |
| 20260505153146 | 26 | 232 | 1.6 | 1.6 | 0.00 | 0.00 | 0.00 | 43 | 1010.1 |
| 20260505152643 | 25 | 244 | 4.8 | 4.8 | 0.00 | 0.00 | 0.00 | 43 | 1010.2 |
| 20260505152139 | 26 | 209 | 4.8 | 8.0 | 0.00 | 0.00 | 0.00 | 41 | 1010.0 |
| 20260505151634 | 25 | 167 | 3.2 | 3.2 | 0.00 | 0.00 | 0.00 | 45 | 1009.9 |
| 20260505151132 | 25 | 208 | 1.6 | 3.2 | 0.00 | 0.00 | 0.00 | 46 | 1009.9 |
| 20260505150628 | 25 | 234 | 0.0 | 1.6 | 0.00 | 0.00 | 0.00 | 45 | 1010.1 |
| 20260505150125 | 25 | 250 | 0.0 | 1.6 | 0.00 | 0.00 | 0.00 | 45 | 1010.0 |
| 20260505140553 | 21 | 264 | 4.8 | 8.0 | 0.00 | 0.00 | 0.00 | 54 | 1011.0 |
| 20260505125007 | 19 | 193 | 3.2 | 3.2 | 0.00 | 0.00 | 0.00 | 61 | 1010.8 |
| 20260505124503 | 19 | 205 | 0.0 | 1.6 | 0.00 | 0.00 | 0.00 | 61 | 1011.0 |
| 20260505124000 | 18 | 258 | 4.8 | 8.0 | 0.00 | 0.00 | 0.00 | 62 | 1010.9 |
| 20260505123456 | 18 | 148 | 0.0 | 1.6 | 0.00 | 0.00 | 0.00 | 65 | 1010.8 |
| 20260505122952 | 18 | 277 | 6.4 | 9.7 | 0.00 | 0.00 | 0.00 | 65 | 1010.8 |
| 20260505122450 | 18 | 205 | 1.6 | 1.6 | 0.00 | 0.00 | 0.00 | 66 | 1010.8 |
| 20260505121947 | 18 | 205 | 1.6 | 3.2 | 0.00 | 0.00 | 0.00 | 66 | 1010.9 |
| 20260505121443 | 17 | 193 | 0.0 | 0.0 | 0.00 | 0.00 | 0.00 | 66 | 1010.9 |
| 20260505120939 | 17 | 200 | 0.0 | 0.0 | 0.00 | 0.00 | 0.00 | 67 | 1010.7 |
| 20260505120436 | 17 | 175 | 0.0 | 0.0 | 0.00 | 0.00 | 0.00 | 69 | 1010.8 |
| 20260505115935 | 17 | 233 | 1.6 | 1.6 | 0.00 | 0.00 | 0.00 | 67 | 1010.7 |
| 20260505115432 | 17 | 210 | 1.6 | 1.6 | 0.00 | 0.00 | 0.00 | 67 | 1010.9 |
| 20260505114930 | 17 | 215 | 0.0 | 0.0 | 0.00 | 0.00 | 0.00 | 67 | 1010.9 |
| 20260505114426 | 17 | 212 | 0.0 | 0.0 | 0.00 | 0.00 | 0.00 | 67 | 1010.9 |
| 20260505113922 | 17 | 222 | 1.6 | 1.6 | 0.00 | 0.00 | 0.00 | 66 | 1010.5 |
| 20260505113419 | 17 | 211 | 0.0 | 0.0 | 0.00 | 0.00 | 0.00 | 68 | 1010.9 |
| 20260505112915 | 17 | 214 | 0.0 | 0.0 | 0.00 | 0.00 | 0.00 | 68 | 1010.8 |
| 20260505112413 | 16 | 199 | 3.2 | 3.2 | 0.00 | 0.00 | 0.00 | 68 | 1011.0 |
| 20260505111908 | 16 | 194 | 0.0 | 1.6 | 0.00 | 0.00 | 0.00 | 69 | 1011.0 |
| 20260505111403 | 16 | 195 | 0.0 | 0.0 | 0.00 | 0.00 | 0.00 | 70 | 1010.9 |
| 20260505110900 | 16 | 232 | 1.6 | 1.6 | 0.00 | 0.00 | 0.00 | 70 | 1010.8 |
| 20260505110357 | 16 | 214 | 0.0 | 0.0 | 0.00 | 0.00 | 0.00 | 71 | 1010.8 |
| 20260505101827 | 14 | 230 | 1.6 | 3.2 | 0.00 | 0.00 | 0.00 | 75 | 1010.9 |
| 20260505101322 | 14 | 222 | 1.6 | 1.6 | 0.00 | 0.00 | 0.00 | 77 | 1011.0 |
| 20260505100818 | 14 | 213 | 1.6 | 1.6 | 0.00 | 0.00 | 0.00 | 77 | 1011.0 |
| 20260505100315 | 14 | 186 | 0.0 | 0.0 | 0.00 | 0.00 | 0.00 | 76 | 1010.9 |
| 20260505095810 | 14 | 212 | 0.0 | 0.0 | 0.00 | 0.00 | 0.00 | 76 | 1010.7 |
| 20260505095308 | 15 | 201 | 0.0 | 0.0 | 0.00 | 0.00 | 0.00 | 76 | 1010.8 |
| 20260505094803 | 15 | 294 | 1.6 | 1.6 | 0.00 | 0.00 | 0.00 | 75 | 1010.5 |
| 20260505094256 | 15 | 218 | 0.0 | 0.0 | 0.00 | 0.00 | 0.00 | 75 | 1009.8 |
| 20260505093751 | 15 | 223 | 0.0 | 0.0 | 0.00 | 0.00 | 0.00 | 75 | 1010.1 |
| 20260505093249 | 14 | 190 | 1.6 | 3.2 | 0.00 | 0.00 | 0.00 | 75 | 1010.0 |
| 20260505092745 | 14 | 276 | 1.6 | 1.6 | 0.00 | 0.00 | 0.00 | 76 | 1009.7 |
| 20260505092244 | 15 | 189 | 1.6 | 3.2 | 0.00 | 0.00 | 0.00 | 75 | 1009.7 |
| 20260505091741 | 15 | 217 | 1.6 | 3.2 | 0.00 | 0.00 | 0.00 | 75 | 1009.8 |
| 20260505091239 | 14 | 193 | 1.6 | 3.2 | 0.00 | 0.00 | 0.00 | 75 | 1009.7 |
| 20260505090737 | 14 | 190 | 1.6 | 1.6 | 0.00 | 0.00 | 0.00 | 76 | 1009.8 |
| 20260505090235 | 14 | 275 | 1.6 | 3.2 | 0.00 | 0.00 | 0.00 | 76 | 1009.9 |
| 20260505085732 | 13 | 206 | 0.0 | 0.0 | 0.00 | 0.00 | 0.00 | 77 | 1009.7 |
| 20260505085230 | 13 | 209 | 0.0 | 0.0 | 0.00 | 0.00 | 0.00 | 78 | 1009.8 |
| 20260505084727 | 13 | 207 | 0.0 | 0.0 | 0.00 | 0.00 | 0.00 | 79 | 1010.0 |
| 20260505084226 | 12 | 257 | 3.2 | 4.8 | 0.00 | 0.00 | 0.00 | 82 | 1010.0 |
| 20260505083722 | 12 | 186 | 0.0 | 0.0 | 0.00 | 0.00 | 0.00 | 84 | 1009.9 |
| 20260505083219 | 11 | 210 | 0.0 | 0.0 | 0.00 | 0.00 | 0.00 | 86 | 1009.9 |
| 20260505082715 | 11 | 210 | 0.0 | 0.0 | 0.00 | 0.00 | 0.00 | 86 | 1010.4 |
| 20260505082213 | 11 | 205 | 0.0 | 0.0 | 0.00 | 0.00 | 0.00 | 86 | 1010.3 |
| 20260505081708 | 11 | 195 | 0.0 | 0.0 | 0.00 | 0.00 | 0.00 | 86 | 1010.0 |
| 20260505081206 | 11 | 198 | 0.0 | 0.0 | 0.00 | 0.00 | 0.00 | 86 | 1010.1 |
| 20260505080703 | 11 | 205 | 0.0 | 0.0 | 0.00 | 0.00 | 0.00 | 85 | 1009.9 |
| 20260505080158 | 11 | 206 | 0.0 | 0.0 | 0.00 | 0.00 | 0.00 | 85 | 1010.1 |
| 20260505075654 | 11 | 205 | 0.0 | 0.0 | 0.00 | 0.00 | 0.00 | 84 | 1009.8 |
| 20260505075151 | 11 | 206 | 0.0 | 0.0 | 0.00 | 0.00 | 0.00 | 84 | 1010.0 |
| 20260505074648 | 11 | 205 | 0.0 | 0.0 | 0.00 | 0.00 | 0.00 | 83 | 1009.9 |
| 20260505074145 | 11 | 205 | 0.0 | 0.0 | 0.00 | 0.00 | 0.00 | 83 | 1009.9 |
| 20260505073643 | 11 | 206 | 0.0 | 0.0 | 0.00 | 0.00 | 0.00 | 83 | 1010.1 |
| 20260505073141 | 11 | 206 | 0.0 | 0.0 | 0.00 | 0.00 | 0.00 | 82 | 1010.0 |
| 20260505072636 | 11 | 205 | 0.0 | 0.0 | 0.00 | 0.00 | 0.00 | 82 | 1009.5 |
| 20260505072133 | 12 | 206 | 0.0 | 0.0 | 0.00 | 0.00 | 0.00 | 81 | 1010.0 |
| 20260505071629 | 12 | 206 | 0.0 | 0.0 | 0.00 | 0.00 | 0.00 | 80 | 1009.7 |
| 20260505071127 | 12 | 206 | 0.0 | 0.0 | 0.00 | 0.00 | 0.00 | 80 | 1009.7 |
| 20260505070624 | 12 | 206 | 0.0 | 0.0 | 0.00 | 0.00 | 0.00 | 79 | 1009.6 |
| 20260505070120 | 12 | 206 | 0.0 | 0.0 | 0.00 | 0.00 | 0.00 | 78 | 1009.8 |
| 20260505065616 | 13 | 206 | 0.0 | 0.0 | 0.00 | 0.00 | 0.00 | 76 | 1009.8 |
| 20260505065113 | 13 | 205 | 0.0 | 0.0 | 0.00 | 0.00 | 0.00 | 76 | 1009.8 |
| 20260505064610 | 13 | 206 | 0.0 | 0.0 | 0.00 | 0.00 | 0.00 | 75 | 1009.9 |
| 20260505064108 | 13 | 223 | 0.0 | 0.0 | 0.00 | 0.00 | 0.00 | 74 | 1009.9 |
| 20260505063605 | 13 | 224 | 0.0 | 0.0 | 0.00 | 0.00 | 0.00 | 74 | 1009.8 |
| 20260505063101 | 13 | 213 | 0.0 | 0.0 | 0.00 | 0.00 | 0.00 | 74 | 1009.7 |
| 20260505062557 | 13 | 204 | 0.0 | 0.0 | 0.00 | 0.00 | 0.00 | 73 | 1009.6 |
| 20260505062055 | 14 | 210 | 1.6 | 1.6 | 0.00 | 0.00 | 0.00 | 72 | 1010.0 |
| 20260505061552 | 14 | 204 | 0.0 | 0.0 | 0.00 | 0.00 | 0.00 | 72 | 1009.8 |
| 20260505061050 | 14 | 215 | 0.0 | 0.0 | 0.00 | 0.00 | 0.00 | 71 | 1009.6 |
| 20260505060547 | 14 | 198 | 0.0 | 0.0 | 0.00 | 0.00 | 0.00 | 71 | 1009.7 |
| 20260505060044 | 14 | 199 | 1.6 | 3.2 | 0.00 | 0.00 | 0.00 | 71 | 1009.7 |
| 20260505055539 | 14 | 180 | 1.6 | 1.6 | 0.00 | 0.00 | 0.00 | 71 | 1009.9 |
| 20260505055036 | 14 | 189 | 1.6 | 1.6 | 0.00 | 0.00 | 0.00 | 71 | 1009.8 |
| 20260505054533 | 14 | 200 | 0.0 | 1.6 | 0.00 | 0.00 | 0.00 | 72 | 1009.7 |
| 20260505054032 | 13 | 198 | 1.6 | 1.6 | 0.00 | 0.00 | 0.00 | 72 | 1009.8 |
| 20260505053528 | 13 | 194 | 0.0 | 1.6 | 0.00 | 0.00 | 0.00 | 72 | 1009.7 |
| 20260505053025 | 14 | 212 | 0.0 | 0.0 | 0.00 | 0.00 | 0.00 | 71 | 1009.9 |
| 20260505052522 | 14 | 208 | 0.0 | 0.0 | 0.00 | 0.00 | 0.00 | 70 | 1010.0 |
| 20260505052020 | 14 | 207 | 0.0 | 0.0 | 0.00 | 0.00 | 0.00 | 70 | 1010.1 |
| 20260505051516 | 14 | 195 | 0.0 | 0.0 | 0.00 | 0.00 | 0.00 | 70 | 1010.2 |
| 20260505051014 | 14 | 190 | 0.0 | 0.0 | 0.00 | 0.00 | 0.00 | 70 | 1009.9 |
| 20260505050512 | 14 | 208 | 0.0 | 0.0 | 0.00 | 0.00 | 0.00 | 69 | 1010.2 |
| 20260505041434 | 15 | 195 | 1.6 | 1.6 | 0.00 | 0.00 | 0.00 | 66 | 1010.1 |
| 20260505040931 | 15 | 207 | 1.6 | 1.6 | 0.00 | 0.00 | 0.00 | 65 | 1010.2 |
| 20260505040429 | 15 | 221 | 1.6 | 1.6 | 0.00 | 0.00 | 0.00 | 65 | 1010.3 |
| 20260505035925 | 15 | 204 | 1.6 | 1.6 | 0.00 | 0.00 | 0.00 | 65 | 1010.2 |
| 20260505035421 | 15 | 184 | 1.6 | 3.2 | 0.00 | 0.00 | 0.00 | 64 | 1010.2 |
| 20260505034919 | 15 | 214 | 1.6 | 3.2 | 0.00 | 0.00 | 0.00 | 64 | 1010.3 |
| 20260505034415 | 15 | 212 | 0.0 | 1.6 | 0.00 | 0.00 | 0.00 | 63 | 1010.1 |
| 20260505033912 | 15 | 190 | 1.6 | 3.2 | 0.00 | 0.00 | 0.00 | 63 | 1010.3 |
| 20260505033409 | 15 | 211 | 0.0 | 0.0 | 0.00 | 0.00 | 0.00 | 63 | 1010.3 |
| 20260505032907 | 15 | 213 | 0.0 | 1.6 | 0.00 | 0.00 | 0.00 | 62 | 1010.1 |
| 20260505032403 | 15 | 242 | 1.6 | 3.2 | 0.00 | 0.00 | 0.00 | 62 | 1010.4 |
| 20260505031900 | 16 | 191 | 3.2 | 4.8 | 0.00 | 0.00 | 0.00 | 61 | 1010.3 |
| 20260505031357 | 16 | 200 | 3.2 | 3.2 | 0.00 | 0.00 | 0.00 | 61 | 1010.4 |
| 20260505030854 | 16 | 191 | 3.2 | 3.2 | 0.00 | 0.00 | 0.00 | 60 | 1010.3 |
| 20260505030350 | 16 | 167 | 3.2 | 3.2 | 0.00 | 0.00 | 0.00 | 59 | 1010.4 |
| 20260505025845 | 16 | 194 | 3.2 | 4.8 | 0.00 | 0.00 | 0.00 | 59 | 1010.3 |
| 20260505025343 | 16 | 195 | 3.2 | 3.2 | 0.00 | 0.00 | 0.00 | 58 | 1010.4 |
| 20260505024842 | 16 | 205 | 0.0 | 1.6 | 0.00 | 0.00 | 0.00 | 58 | 1010.3 |
| 20260505024339 | 16 | 188 | 0.0 | 1.6 | 0.00 | 0.00 | 0.00 | 57 | 1010.4 |
| 20260505023836 | 16 | 203 | 3.2 | 3.2 | 0.00 | 0.00 | 0.00 | 56 | 1010.6 |
| 20260505023333 | 16 | 195 | 3.2 | 3.2 | 0.00 | 0.00 | 0.00 | 55 | 1010.5 |
| 20260505022830 | 16 | 190 | 3.2 | 3.2 | 0.00 | 0.00 | 0.00 | 55 | 1010.5 |
| 20260505022327 | 16 | 200 | 1.6 | 1.6 | 0.00 | 0.00 | 0.00 | 55 | 1010.4 |
| 20260505021825 | 16 | 197 | 1.6 | 1.6 | 0.00 | 0.00 | 0.00 | 54 | 1010.5 |
| 20260505021321 | 17 | 201 | 0.0 | 1.6 | 0.00 | 0.00 | 0.00 | 53 | 1010.8 |
| 20260505020817 | 17 | 133 | 1.6 | 1.6 | 0.00 | 0.00 | 0.00 | 52 | 1010.7 |
| 20260505020313 | 17 | 186 | 1.6 | 1.6 | 0.00 | 0.00 | 0.00 | 52 | 1010.6 |
| 20260505015810 | 17 | 203 | 1.6 | 1.6 | 0.00 | 0.00 | 0.00 | 51 | 1010.6 |
| 20260505015307 | 17 | 243 | 1.6 | 3.2 | 0.00 | 0.00 | 0.00 | 50 | 1010.6 |
| 20260505014804 | 17 | 176 | 3.2 | 4.8 | 0.00 | 0.00 | 0.00 | 49 | 1010.5 |
| 20260505014301 | 17 | 196 | 1.6 | 1.6 | 0.00 | 0.00 | 0.00 | 47 | 1010.4 |
| 20260505013757 | 17 | 207 | 3.2 | 3.2 | 0.00 | 0.00 | 0.00 | 46 | 1010.5 |
| 20260505013255 | 17 | 199 | 1.6 | 1.6 | 0.00 | 0.00 | 0.00 | 46 | 1010.5 |
| 20260505012753 | 17 | 198 | 1.6 | 1.6 | 0.00 | 0.00 | 0.00 | 46 | 1010.3 |
| 20260505012250 | 17 | 203 | 1.6 | 1.6 | 0.00 | 0.00 | 0.00 | 46 | 1010.1 |
| 20260505011745 | 17 | 216 | 0.0 | 1.6 | 0.00 | 0.00 | 0.00 | 45 | 1010.1 |
| 20260505011243 | 18 | 196 | 0.0 | 0.0 | 0.00 | 0.00 | 0.00 | 45 | 1009.9 |
| 20260505010738 | 18 | 191 | 0.0 | 1.6 | 0.00 | 0.00 | 0.00 | 44 | 1009.9 |
| 20260505010235 | 18 | 178 | 3.2 | 3.2 | 0.00 | 0.00 | 0.00 | 43 | 1009.8 |
| 20260505005731 | 18 | 200 | 0.0 | 0.0 | 0.00 | 0.00 | 0.00 | 43 | 1009.8 |
| 20260505005228 | 18 | 208 | 0.0 | 1.6 | 0.00 | 0.00 | 0.00 | 44 | 1009.9 |
| 20260505004726 | 18 | 195 | 0.0 | 0.0 | 0.00 | 0.00 | 0.00 | 43 | 1009.9 |
| 20260505004222 | 18 | 214 | 0.0 | 0.0 | 0.00 | 0.00 | 0.00 | 43 | 1009.9 |
| 20260505003719 | 18 | 202 | 0.0 | 0.0 | 0.00 | 0.00 | 0.00 | 43 | 1009.8 |
| 20260505003217 | 18 | 215 | 0.0 | 0.0 | 0.00 | 0.00 | 0.00 | 43 | 1009.6 |
| 20260505002713 | 18 | 203 | 0.0 | 0.0 | 0.00 | 0.00 | 0.00 | 42 | 1009.5 |
| 20260505002211 | 18 | 190 | 3.2 | 3.2 | 0.00 | 0.00 | 0.00 | 42 | 1009.6 |
| 20260505001708 | 18 | 231 | 1.6 | 1.6 | 0.00 | 0.00 | 0.00 | 42 | 1009.5 |
| 20260505001205 | 19 | 200 | 0.0 | 1.6 | 0.00 | 0.00 | 0.00 | 41 | 1009.5 |
| 20260505000702 | 19 | 211 | 1.6 | 1.6 | 0.00 | 0.00 | 0.00 | 41 | 1009.3 |
| 20260505000200 | 19 | 212 | 0.0 | 0.0 | 0.00 | 0.00 | 0.00 | 40 | 1009.2 |
| 20260504235656 | 20 | 232 | 1.6 | 1.6 | 0.00 | 0.00 | 0.00 | 39 | 1009.2 |
| 20260504235152 | 20 | 196 | 0.0 | 0.0 | 0.00 | 0.00 | 0.00 | 40 | 1009.1 |
| 20260504234650 | 20 | 210 | 0.0 | 0.0 | 0.00 | 0.00 | 0.00 | 39 | 1009.1 |
| 20260504234147 | 20 | 221 | 0.0 | 0.0 | 0.00 | 0.00 | 0.00 | 38 | 1009.0 |
| 20260504233643 | 20 | 223 | 0.0 | 1.6 | 0.00 | 0.00 | 0.00 | 38 | 1009.1 |
| 20260504233139 | 20 | 216 | 0.0 | 0.0 | 0.00 | 0.00 | 0.00 | 37 | 1009.0 |
| 20260504232637 | 20 | 207 | 1.6 | 1.6 | 0.00 | 0.00 | 0.00 | 37 | 1008.9 |
| 20260504232133 | 21 | 178 | 1.6 | 1.6 | 0.00 | 0.00 | 0.00 | 36 | 1009.0 |
| 20260504231630 | 21 | 208 | 1.6 | 1.6 | 0.00 | 0.00 | 0.00 | 36 | 1008.7 |
| 20260504231127 | 21 | 199 | 1.6 | 1.6 | 0.00 | 0.00 | 0.00 | 36 | 1008.9 |
| 20260504230623 | 21 | 225 | 1.6 | 1.6 | 0.00 | 0.00 | 0.00 | 36 | 1009.0 |
| 20260504230122 | 21 | 262 | 3.2 | 3.2 | 0.00 | 0.00 | 0.00 | 35 | 1008.7 |
| 20260504225619 | 21 | 284 | 4.8 | 4.8 | 0.00 | 0.00 | 0.00 | 36 | 1008.6 |
| 20260504225115 | 21 | 272 | 4.8 | 4.8 | 0.00 | 0.00 | 0.00 | 36 | 1008.6 |
| 20260504224612 | 21 | 212 | 0.0 | 0.0 | 0.00 | 0.00 | 0.00 | 35 | 1008.8 |
| 20260504224109 | 21 | 178 | 4.8 | 8.0 | 0.00 | 0.00 | 0.00 | 35 | 1008.6 |
| 20260504223606 | 21 | 287 | 3.2 | 4.8 | 0.00 | 0.00 | 0.00 | 35 | 1008.7 |
| 20260504223102 | 22 | 252 | 4.8 | 8.0 | 0.00 | 0.00 | 0.00 | 34 | 1008.7 |
| 20260504222559 | 22 | 138 | 3.2 | 4.8 | 0.00 | 0.00 | 0.00 | 34 | 1008.8 |
| 20260504222056 | 22 | 174 | 3.2 | 3.2 | 0.00 | 0.00 | 0.00 | 35 | 1008.9 |
| 20260504221553 | 22 | 215 | 4.8 | 4.8 | 0.00 | 0.00 | 0.00 | 35 | 1008.7 |
| 20260504221050 | 22 | 306 | 4.8 | 8.0 | 0.00 | 0.00 | 0.00 | 34 | 1008.8 |
| 20260504220546 | 22 | 216 | 0.0 | 0.0 | 0.00 | 0.00 | 0.00 | 34 | 1008.7 |
| 20260504220044 | 22 | 164 | 11.3 | 14.5 | 0.00 | 0.00 | 0.00 | 33 | 1008.9 |
| 20260504215540 | 22 | 271 | 6.4 | 8.0 | 0.00 | 0.00 | 0.00 | 33 | 1009.0 |
| 20260504215038 | 22 | 213 | 4.8 | 4.8 | 0.00 | 0.00 | 0.00 | 34 | 1008.8 |
| 20260504214533 | 22 | 308 | 4.8 | 8.0 | 0.00 | 0.00 | 0.00 | 33 | 1009.0 |
| 20260504214030 | 22 | 147 | 4.8 | 4.8 | 0.00 | 0.00 | 0.00 | 33 | 1009.0 |
| 20260504213526 | 22 | 229 | 3.2 | 3.2 | 0.00 | 0.00 | 0.00 | 32 | 1009.0 |
| 20260504213024 | 22 | 220 | 1.6 | 3.2 | 0.00 | 0.00 | 0.00 | 33 | 1009.0 |
| 20260504212519 | 22 | 182 | 0.0 | 1.6 | 0.00 | 0.00 | 0.00 | 34 | 1009.0 |
| 20260504212017 | 23 | 221 | 3.2 | 4.8 | 0.00 | 0.00 | 0.00 | 32 | 1009.1 |
| 20260504211514 | 22 | 217 | 4.8 | 4.8 | 0.00 | 0.00 | 0.00 | 33 | 1009.0 |
| 20260504211011 | 23 | 204 | 4.8 | 8.0 | 0.00 | 0.00 | 0.00 | 34 | 1009.2 |
| 20260504210508 | 22 | 211 | 1.6 | 1.6 | 0.00 | 0.00 | 0.00 | 33 | 1009.0 |
| 20260504210005 | 22 | 198 | 3.2 | 4.8 | 0.00 | 0.00 | 0.00 | 32 | 1009.2 |
| 20260504205503 | 23 | 225 | 4.8 | 4.8 | 0.00 | 0.00 | 0.00 | 33 | 1009.2 |
| 20260504205000 | 22 | 199 | 1.6 | 1.6 | 0.00 | 0.00 | 0.00 | 31 | 1009.1 |
| 20260504204458 | 22 | 209 | 6.4 | 9.7 | 0.00 | 0.00 | 0.00 | 32 | 1009.2 |
| 20260504203957 | 23 | 260 | 4.8 | 8.0 | 0.00 | 0.00 | 0.00 | 33 | 1009.0 |
| 20260504203455 | 22 | 204 | 0.0 | 0.0 | 0.00 | 0.00 | 0.00 | 33 | 1009.1 |
| 20260504202950 | 23 | 354 | 4.8 | 9.7 | 0.00 | 0.00 | 0.00 | 32 | 1009.0 |
| 20260504202447 | 23 | 280 | 11.3 | 12.9 | 0.00 | 0.00 | 0.00 | 30 | 1009.1 |
| 20260504201944 | 23 | 273 | 6.4 | 8.0 | 0.00 | 0.00 | 0.00 | 31 | 1009.2 |
| 20260504201441 | 23 | 298 | 3.2 | 3.2 | 0.00 | 0.00 | 0.00 | 31 | 1009.1 |
| 20260504200939 | 23 | 175 | 1.6 | 3.2 | 0.00 | 0.00 | 0.00 | 33 | 1009.3 |
| 20260504200435 | 23 | 133 | 3.2 | 4.8 | 0.00 | 0.00 | 0.00 | 32 | 1009.3 |
| 20260504195932 | 23 | 30 | 4.8 | 4.8 | 0.00 | 0.00 | 0.00 | 31 | 1009.5 |
| 20260504195428 | 23 | 255 | 6.4 | 8.0 | 0.00 | 0.00 | 0.00 | 31 | 1009.3 |
| 20260504194924 | 23 | 220 | 6.4 | 9.7 | 0.00 | 0.00 | 0.00 | 33 | 1009.5 |
| 20260504194420 | 23 | 278 | 6.4 | 9.7 | 0.00 | 0.00 | 0.00 | 33 | 1009.5 |
| 20260504193916 | 23 | 284 | 4.8 | 4.8 | 0.00 | 0.00 | 0.00 | 33 | 1009.3 |
| 20260504193414 | 23 | 258 | 4.8 | 4.8 | 0.00 | 0.00 | 0.00 | 33 | 1009.4 |
| 20260504192913 | 23 | 289 | 3.2 | 3.2 | 0.00 | 0.00 | 0.00 | 32 | 1009.4 |
| 20260504192409 | 22 | 145 | 6.4 | 11.3 | 0.00 | 0.00 | 0.00 | 32 | 1009.5 |
| 20260504191909 | 23 | 286 | 6.4 | 8.0 | 0.00 | 0.00 | 0.00 | 33 | 1009.4 |
| 20260504191406 | 22 | 229 | 3.2 | 4.8 | 0.00 | 0.00 | 0.00 | 34 | 1009.6 |
| 20260504190901 | 22 | 278 | 6.4 | 8.0 | 0.00 | 0.00 | 0.00 | 32 | 1009.9 |
| 20260504190357 | 22 | 265 | 4.8 | 8.0 | 0.00 | 0.00 | 0.00 | 35 | 1010.1 |
| 20260504185854 | 22 | 82 | 8.0 | 11.3 | 0.00 | 0.00 | 0.00 | 34 | 1009.9 |
| 20260504185351 | 22 | 263 | 6.4 | 8.0 | 0.00 | 0.00 | 0.00 | 33 | 1010.0 |
| 20260504184847 | 22 | 148 | 1.6 | 1.6 | 0.00 | 0.00 | 0.00 | 33 | 1009.7 |
| 20260504184343 | 23 | 203 | 0.0 | 1.6 | 0.00 | 0.00 | 0.00 | 33 | 1010.4 |
| 20260504183839 | 22 | 231 | 4.8 | 8.0 | 0.00 | 0.00 | 0.00 | 36 | 1010.2 |
| 20260504183337 | 22 | 271 | 6.4 | 9.7 | 0.00 | 0.00 | 0.00 | 34 | 1010.4 |
| 20260504182834 | 22 | 263 | 1.6 | 4.8 | 0.00 | 0.00 | 0.00 | 36 | 1010.3 |
| 20260504182331 | 22 | 179 | 3.2 | 3.2 | 0.00 | 0.00 | 0.00 | 36 | 1010.5 |